Content
SEND FEEDBACK

Daily
Averages
Monthly
Summary
United States of America

NEW YORK - CENTRAL PARK, NEW YORK


Home > North America > United States > New York
Elevation: 14 feet     Latitude: 40 47N     Longitude: 073 58W

WEATHER
 
SELECT A DAY
Number of Records: 148,109;   Date Range: 11/1/95 - 7/29/14
 
SHARE

PRINT THIS DATA

[ ← Previous Day ]
WEATHER ALMANAC - APRIL 8, 2013
[ Next Day → ]
[ °C ]   °F
Weather ElementAverageHighLow
Temperature59.6 °F73 °F (2:51 pm)53.1 °F (2:51 am)
Dewpoint41.2 °F46 °F (11:51 pm)36 °F (1:51 pm)
Humidity53.3 %75 % (11:51 pm)27 % (2:51 pm)
Barometer30.02 in30.07 in (9:51 am)29.98 in (1:51 am)
Wind Speed4.2 mph10.4 mph (6:51 pm)
Wind Gust18.4 mph (5:51 pm)
Weather ElementAverage
Visibility10 mi
Wind DirectionE (89.6 °)

Weather ElementTotal
Precipitation---
Heating Degree Days2 (Base 65)
Growing Degree Days13.1 (Base 50)
Averaged from 23 records on April 8, 2013
WEATHER CONDITIONS BREAKOUT
WIND DIRECTION BREAKOUT
WEATHER BY HOUR - APRIL 8, 2013
[ °C ]   °F
Local TimeTemperatureDewpointHumidityBarometerVisibilityWind DirectionWind SpeedGust SpeedPrecipitationEventsConditions
1:51 AM54.0 °F42.1 °F64 %29.98 in10.0 miVariable4.6 mphClear
2:51 AM53.1 °F42.1 °F66 %29.98 in10.0 miWest (260°)5.8 mphClear
3:51 AM53.1 °F42.1 °F66 %29.99 in10.0 miVariable3.5 mphClear
4:51 AM53.1 °F42.1 °F66 %29.99 in10.0 miCalmClear
5:51 AM53.1 °F42.1 °F66 %30.00 in10.0 miWSW (250°)4.6 mphClear
6:51 AM54.0 °F42.1 °F64 %30.03 in10.0 miCalmClear
7:51 AM54.0 °F42.1 °F64 %30.05 in10.0 miWest (270°)3.5 mphClear
8:51 AM55.0 °F42.1 °F62 %30.05 in10.0 miVariable3.5 mphClear
9:51 AM57.0 °F41.0 °F55 %30.07 in10.0 miCalmClear
10:51 AM60.1 °F41.0 °F49 %30.07 in10.0 miVariable3.5 mphClear
11:51 AM64.9 °F39.9 °F40 %30.07 in10.0 miVariable3.5 mphClear
12:51 PM68.0 °F37.9 °F33 %30.06 in10.0 miWNW (300°)5.8 mphClear
1:51 PM71.1 °F36.0 °F28 %30.03 in10.0 miVariable3.5 mphClear
2:51 PM73.0 °F37.0 °F27 %30.01 in10.0 miSouth (170°)6.9 mphClear
3:51 PM72.0 °F37.0 °F28 %30.00 in10.0 miCalmClear
4:51 PM68.0 °F39.9 °F36 %30.00 in10.0 miVariable5.8 mphClear
5:51 PM63.0 °F39.9 °F43 %30.01 in10.0 miSouth (170°)9.2 mph18.4 mphClear
6:51 PM62.1 °F39.9 °F44 %30.01 in10.0 miSSE (160°)10.4 mph18.4 mphClear
7:51 PM59.0 °F42.1 °F53 %30.02 in10.0 miSSE (160°)9.2 mphClear
8:51 PM57.0 °F44.1 °F62 %30.02 in10.0 miNorthClear
9:51 PM55.9 °F45.0 °F67 %30.03 in10.0 miSSE (160°)4.6 mphClear
10:51 PM55.9 °F45.0 °F67 %30.01 in10.0 miSSE (160°)3.5 mphPartly Cloudy
11:51 PM54.0 °F46.0 °F75 %30.00 in10.0 miCalmClear
Hourly data recorded from KNYC, located miles away from New York - Central Park, New York







STORIES FROM OUR PARTNERS